{"data":{"norad_id":40552,"intl_designator":"2015-020A","name":"GONETS-M 11","alt_names":[],"object_type":"PAYLOAD","status":"ACTIVE","operator":null,"country":"CIS","launch_date":"2015-03-31","launch_site_code":"PLMSC","launch_vehicle":null,"mission":null,"orbit_class":"UNKNOWN","rcs_meters":1.6379,"size_class":null,"mass_kg":null,"dimensions":null,"purposes":[],"wikipedia_slug":null,"has_3d_model":false,"image_url":null,"decayed_at":null,"tle_current":{"epoch":"2026-05-25T03:31:44.591232Z","epoch_age_seconds":61649,"freshness":"FRESH","line1":"1 40552U 15020A   26145.14704388 -.00000003  00000+0 -94624-4 0  9990","line2":"2 40552  82.4879  45.3466 0017350  53.6041 306.6636 12.42876212505879","mean_motion":12.42876212,"eccentricity":0.001735,"inclination_deg":82.4879,"raan_deg":45.3466,"arg_perigee_deg":53.6041,"mean_anomaly_deg":306.6636,"bstar":-9.4624e-5,"rev_number":50587,"period_min":115.8602913224,"perigee_km":1480.7751730207,"apogee_km":1508.0929946816,"semimajor_km":7872.5710838511,"source":"CELESTRAK","updated_at":"2026-05-25T13:37:55.525270Z"}}}